Hat Yai, Thailand

11:34 PM ICT on February 06, 2016 (GMT +0700)
Hat Yai International

Weather History for VTSS - October, 2013

Change the Weather History Date:

Thursday, October 24, 2013

  Actual Average Record
Temperature  
Mean Temperature 80 °F -  
Max Temperature 88 °F 84 °F 93 °F (2010)
Min Temperature 73 °F 73 °F 73 °F (1996)
Cooling Degree Days 16    
Growing Degree Days 30 (Base 50)    
Moisture  
Dew Point 73 °F    
Average Humidity 82    
Maximum Humidity 94    
Minimum Humidity 55    
Precipitation  
Precipitation 0.04 in - - ()
Sea Level Pressure  
Sea Level Pressure 29.85 in    
Wind  
Wind Speed 3 mph ()    
Max Wind Speed 10 mph    
Max Gust Speed -    
Visibility 5.8 miles    
Events Rain    
Averages and records for this station are not official NWS values.
T = Trace of Precipitation, MM = Missing Value Source: Averaged Metar Reports

Daily Weather History Graph

Daily Weather History Graph

Search for Another Location

Airport or City:

Trip Planner

Search our weather history database for the weather conditions in past years. The results will help you decide how hot, cold, wet, or windy it might be!

Date:

Astronomy

Oct. 24, 2013 Rise Set
Actual Time 6:04 AM ICT 6:00 PM ICT
Civil Twilight 5:43 AM ICT 6:21 PM ICT
Nautical Twilight 5:18 AM ICT 6:45 PM ICT
Astronomical Twilight 4:54 AM ICT 7:10 PM ICT
Moon 10:21 PM ICT (10/24) 10:16 AM ICT (10/24)
Length of Visible Light 12h 37m
Length of Day
11h 55m
Waning Gibbous, 75% of the Moon is Illuminated
Oct 24
Waning Gibbous
Oct 27
Last Quarter
Nov 3
New
Nov 10
First Quarter
Nov 17
Full

Hourly Weather History & Observations

Time (ICT) Temp. Heat Index Dew Point Humidity Pressure Visibility Wind Dir Wind Speed Gust Speed Precip Events Conditions
12:00 AM 77.0 °F - 75.2 °F 94% 29.89 in 5.0 mi South 2.3 mph - N/A Rain Light Rain
12:30 AM 77.0 °F - 75.2 °F 94% 29.86 in 5.0 mi WSW 2.3 mph - N/A   Mostly Cloudy
1:00 AM 75 °F - 74 °F 94% 29.87 in 5 mi West 2.3 mph - - Rain Light Rain
1:00 AM 75.2 °F - 73.4 °F 94% 29.86 in 5.0 mi West 2.3 mph - N/A   Mostly Cloudy
1:30 AM 75.2 °F - 73.4 °F 94% 29.86 in 5.0 mi West 2.3 mph - N/A   Mostly Cloudy
2:00 AM 75.2 °F - 73.4 °F 94% 29.86 in 5.0 mi WSW 2.3 mph - N/A   Mostly Cloudy
2:30 AM 75.2 °F - 73.4 °F 94% 29.86 in 5.0 mi West 2.3 mph - N/A   Mostly Cloudy
3:00 AM 75.2 °F - 73.4 °F 94% 29.86 in 5.0 mi Calm Calm - N/A   Mostly Cloudy
3:30 AM 75.2 °F - 71.6 °F 89% 29.86 in 5.0 mi North 2.3 mph - N/A   Mostly Cloudy
4:00 AM 75.2 °F - 71.6 °F 89% 29.86 in 5.0 mi WNW 5.8 mph - N/A   Mostly Cloudy
4:30 AM 73.4 °F - 71.6 °F 94% 29.86 in 5.0 mi Calm Calm - N/A   Mostly Cloudy
5:00 AM 73.4 °F - 71.6 °F 94% 29.86 in 6.2 mi Calm Calm - N/A   Mostly Cloudy
5:30 AM 73.4 °F - 71.6 °F 94% 29.86 in 6.2 mi NNE 3.5 mph - N/A   Overcast
6:00 AM 75.2 °F - 71.6 °F 89% 29.86 in 5.6 mi Calm Calm - N/A Rain Light Rain
6:30 AM 75.2 °F - 71.6 °F 89% 29.89 in 6.2 mi NE 2.3 mph - N/A   Mostly Cloudy
7:00 AM 74 °F - 72 °F 93% 29.89 in 6 mi NNE 2.3 mph - - Rain Light Rain
7:00 AM 75.2 °F - 71.6 °F 89% 29.89 in 6.2 mi NNE 2.3 mph - N/A   Mostly Cloudy
7:30 AM 75.2 °F - 73.4 °F 94% 29.89 in 6.2 mi NNW 4.6 mph - N/A   Mostly Cloudy
8:00 AM 75.2 °F - 73.4 °F 94% 29.92 in 5.0 mi NNW 4.6 mph - N/A   Mostly Cloudy
8:30 AM 77.0 °F - 73.4 °F 89% 29.92 in 5.0 mi NNW 5.8 mph - N/A   Mostly Cloudy
9:00 AM 78.8 °F - 73.4 °F 83% 29.92 in 5.0 mi North 3.5 mph - N/A   Mostly Cloudy
9:30 AM 82.4 °F 89.5 °F 75.2 °F 79% 29.92 in 5.6 mi Calm Calm - N/A   Mostly Cloudy
10:00 AM 82.4 °F 88.2 °F 73.4 °F 74% 29.92 in 6.2 mi ENE 3.5 mph - N/A   Mostly Cloudy
10:30 AM 82.4 °F 89.5 °F 75.2 °F 79% 29.92 in 6.2 mi NNE 2.3 mph - N/A   Mostly Cloudy
11:00 AM 86.0 °F 93.4 °F 73.4 °F 66% 29.89 in 6.2 mi North 3.5 mph - N/A   Mostly Cloudy
11:30 AM 87.8 °F 97.6 °F 75.2 °F 66% 29.86 in 6.2 mi NNE 5.8 mph - N/A   Mostly Cloudy
12:00 PM 89.6 °F 96.2 °F 71.6 °F 55% 29.83 in 6.2 mi NE 4.6 mph - N/A   Mostly Cloudy
12:30 PM 87.8 °F 95.6 °F 73.4 °F 62% 29.83 in 6.2 mi NNW 6.9 mph - N/A   Mostly Cloudy
1:00 PM 89 °F - 75 °F 56% 29.82 in 6 mi North 5.8 mph - -   Partly Cloudy
1:00 PM 87.8 °F 97.6 °F 75.2 °F 66% 29.80 in 6.2 mi North 5.8 mph - N/A   Mostly Cloudy
1:30 PM 86.0 °F 93.4 °F 73.4 °F 66% 29.80 in 6.2 mi ENE 9.2 mph - N/A   Mostly Cloudy
2:00 PM 86.0 °F 90.4 °F 69.8 °F 58% 29.77 in 6.2 mi NNE 10.4 mph - N/A   Mostly Cloudy
2:30 PM 86.0 °F 89.4 °F 68.0 °F 55% 29.77 in 6.2 mi ENE 6.9 mph - N/A   Mostly Cloudy
3:00 PM 87.8 °F 92.6 °F 69.8 °F 55% 29.77 in 6.2 mi East 6.9 mph - N/A   Mostly Cloudy
3:30 PM 86.0 °F 91.8 °F 71.6 °F 62% 29.77 in 6.2 mi East 3.5 mph - N/A   Mostly Cloudy
4:00 PM 86.0 °F 91.8 °F 71.6 °F 62% 29.77 in 6.2 mi East 6.9 mph - N/A   Mostly Cloudy
4:30 PM 82.4 °F 88.2 °F 73.4 °F 74% 29.80 in 6.2 mi SW 4.6 mph - N/A   Mostly Cloudy
5:00 PM 80.6 °F 85.4 °F 73.4 °F 79% 29.80 in 6.2 mi SSW 3.5 mph - N/A   Mostly Cloudy
5:30 PM 78.8 °F - 73.4 °F 83% 29.80 in 6.2 mi SSW 2.3 mph - N/A   Mostly Cloudy
6:00 PM 78.8 °F - 73.4 °F 83% 29.80 in 6.2 mi Calm Calm - N/A   Mostly Cloudy
6:30 PM 77.0 °F - 73.4 °F 89% 29.80 in 6.2 mi SSW 5.8 mph - N/A   Mostly Cloudy
7:00 PM 77 °F - 73 °F 85% 29.83 in 6 mi SW 3.5 mph - -   Scattered Clouds
7:00 PM 77.0 °F - 73.4 °F 89% 29.83 in 6.2 mi SW 3.5 mph - N/A   Mostly Cloudy
7:30 PM 77.0 °F - 73.4 °F 89% 29.83 in 6.2 mi SSW 2.3 mph - N/A   Mostly Cloudy
8:00 PM 77.0 °F - 73.4 °F 89% 29.86 in 6.2 mi SW 2.3 mph - N/A   Mostly Cloudy
8:30 PM 77.0 °F - 73.4 °F 89% 29.86 in 6.2 mi SW 3.5 mph - N/A   Mostly Cloudy
9:00 PM 77.0 °F - 73.4 °F 89% 29.89 in 6.2 mi WSW 2.3 mph - N/A   Mostly Cloudy
9:30 PM 75.2 °F - 73.4 °F 94% 29.89 in 6.2 mi SW 3.5 mph - N/A   Mostly Cloudy
10:00 PM 75.2 °F - 73.4 °F 94% 29.89 in 6.2 mi WSW 2.3 mph - N/A   Mostly Cloudy
10:30 PM 77.0 °F - 73.4 °F 89% 29.89 in 6.2 mi West 3.5 mph - N/A   Mostly Cloudy
11:00 PM 77.0 °F - 73.4 °F 89% 29.89 in 6.2 mi WSW 2.3 mph - N/A   Mostly Cloudy
11:30 PM 77.0 °F - 73.4 °F 89% 29.89 in 6.2 mi Calm Calm - N/A   Mostly Cloudy